Weather History for Park Rapids, MN

Change the Weather History Date:

Friday, March 23, 2012

  Actual Average Record
Temperature  
Mean Temperature 57 °F -  
Max Temperature 64 °F 38 °F 68 °F (2003)
Min Temperature 50 °F 16 °F -24 °F (1974)
Degree Days  
Heating Degree Days 8    
Growing Degree Days 7 (Base 50)    
Moisture  
Dew Point 52 °F    
Average Humidity 92    
Maximum Humidity 100    
Minimum Humidity 67    
Precipitation  
Precipitation 0.01 in - - ()
Sea Level Pressure  
Sea Level Pressure 29.95 in    
Wind  
Wind Speed 5 mph (SE)    
Max Wind Speed 8 mph    
Max Gust Speed -    
Visibility 5 miles    
Events Fog    
Averages and records for this station are not official NWS values.
T = Trace of Precipitation, MM = Missing Value Source: NWS Daily Summary

Daily Weather History Graph

Daily Weather History Graph

Search for Another Location

Airport:

Trip Planner

Search our weather history database for the weather conditions in past years. The results will help you decide how hot, cold, wet, or windy it might be!

Date:

Astronomy

Mar. 23, 2012 Rise Set
Actual Time 7:16 AM CDT 7:37 PM CDT
Civil Twilight 6:45 AM CDT 8:08 PM CDT
Nautical Twilight 6:10 AM CDT 8:44 PM CDT
Astronomical Twilight 5:32 AM CDT 9:21 PM CDT
Moon 7:18 AM CDT (3/23) 9:10 PM CDT (3/23)
Length of Visible Light 13h 22m
Length of Day
12h 21m
New Moon, 1% of the Moon is Illuminated
Mar 23
New Moon
Mar 30
First Quarter
Apr 6
Full
Apr 13
Last Quarter
Apr 21
New

Hourly Weather History & Observations

Time (CDT) Temp. Dew Point Humidity Pressure Visibility Wind Dir Wind Speed Gust Speed Precip Events Conditions
12:49 AM 51.8 °F 51.8 °F 100% 29.98 in 6.0 mi ESE 6.9 mph - 0.00 in   Overcast
12:53 AM 52.0 °F 51.1 °F 97% 29.99 in 6.0 mi ESE 5.8 mph - 0.00 in   Overcast
1:22 AM 51.8 °F 50.0 °F 94% 29.97 in 2.5 mi ESE 6.9 mph - N/A   Overcast
1:53 AM 51.1 °F 50.0 °F 96% 29.98 in 1.5 mi East 5.8 mph - N/A   Overcast
2:31 AM 51.8 °F 50.0 °F 94% 29.96 in 0.8 mi East 3.5 mph - N/A   Mist
2:53 AM 50.0 °F 50.0 °F 100% 29.97 in 0.5 mi East 4.6 mph - 0.01 in Fog Fog
3:53 AM 50.0 °F 50.0 °F 100% 29.97 in 0.5 mi ESE 3.5 mph - N/A Fog Fog
4:08 AM 50.0 °F 50.0 °F 100% 29.96 in 0.2 mi ESE 3.5 mph - N/A Fog Fog
4:19 AM 50.0 °F 50.0 °F 100% 29.96 in 0.5 mi Calm Calm - N/A Fog Fog
4:49 AM 50.0 °F 50.0 °F 100% 29.96 in 0.2 mi Calm Calm - N/A Fog Fog
4:53 AM 50.0 °F 50.0 °F 100% 29.97 in 0.2 mi Calm Calm - N/A Fog Fog
5:53 AM 50.0 °F 50.0 °F 100% 29.96 in 0.2 mi East 4.6 mph - N/A Fog Fog
6:53 AM 50.0 °F 50.0 °F 100% 29.98 in 0.2 mi SE 3.5 mph - N/A Fog Fog
7:53 AM 50.0 °F 50.0 °F 100% 29.98 in 0.2 mi SE 3.5 mph - N/A Fog Fog
8:53 AM 51.8 °F 50.0 °F 94% 29.96 in 0.2 mi SE 3.5 mph - N/A Fog Fog
9:53 AM 51.1 °F 51.1 °F 100% 29.98 in 0.2 mi SE 4.6 mph - N/A Fog Fog
10:53 AM 53.1 °F 52.0 °F 96% 29.98 in 0.2 mi SSE 6.9 mph - N/A Fog Fog
11:20 AM 53.6 °F 53.6 °F 100% 29.96 in 1.0 mi SSW 4.6 mph - N/A   Mist
11:23 AM 53.6 °F 53.6 °F 100% 29.96 in 3.0 mi South 3.5 mph - N/A   Overcast
11:53 AM 54.0 °F 53.1 °F 97% 29.98 in 7.0 mi WSW 4.6 mph - N/A   Overcast
12:53 PM 55.9 °F 54.0 °F 93% 29.96 in 10.0 mi Calm Calm - N/A   Overcast
1:13 PM 59.0 °F 55.4 °F 88% 29.94 in 10.0 mi WSW 3.5 mph - N/A   Overcast
1:53 PM 59.0 °F 55.0 °F 87% 29.96 in 10.0 mi Calm Calm - N/A   Overcast
2:27 PM 60.8 °F 55.4 °F 82% 29.93 in 10.0 mi WNW 3.5 mph - N/A   Overcast
2:53 PM 63.0 °F 55.0 °F 75% 29.94 in 10.0 mi Calm Calm - N/A   Mostly Cloudy
3:29 PM 62.6 °F 55.4 °F 77% 29.91 in 10.0 mi Variable 4.6 mph - N/A   Mostly Cloudy
3:53 PM 63.0 °F 55.0 °F 75% 29.93 in 10.0 mi East 5.8 mph - N/A   Overcast
4:32 PM 62.6 °F 53.6 °F 72% 29.90 in 10.0 mi Variable 3.5 mph - N/A   Mostly Cloudy
4:53 PM 63.0 °F 53.1 °F 70% 29.91 in 10.0 mi SE 5.8 mph - N/A   Mostly Cloudy
5:53 PM 64.0 °F 53.1 °F 67% 29.91 in 10.0 mi SSE 5.8 mph - N/A   Overcast
6:53 PM 62.1 °F 54.0 °F 75% 29.91 in 10.0 mi SE 4.6 mph - N/A   Overcast
7:53 PM 60.1 °F 54.0 °F 80% 29.92 in 10.0 mi SE 6.9 mph - N/A   Overcast
8:53 PM 55.9 °F 53.1 °F 90% 29.94 in 10.0 mi SE 6.9 mph - N/A   Clear
9:53 PM 54.0 °F 52.0 °F 93% 29.94 in 10.0 mi Calm Calm - N/A   Overcast
10:37 PM 53.6 °F 51.8 °F 94% 29.93 in 6.0 mi ESE 5.8 mph - N/A   Mostly Cloudy
10:53 PM 54.0 °F 53.1 °F 97% 29.94 in 1.8 mi ESE 5.8 mph - N/A   Overcast
11:05 PM 53.6 °F 53.6 °F 100% 29.92 in 0.8 mi SE 5.8 mph - N/A   Mist
11:46 PM 53.6 °F 53.6 °F 100% 29.92 in 0.2 mi SE 8.1 mph - N/A Fog Fog
11:53 PM 53.1 °F 53.1 °F 100% 29.94 in 0.5 mi SSE 8.1 mph - N/A Fog Fog